Location: Fontevrault
(47.1823°N, 0.0493°E)
Time: 04:22:25
(UTC+00:00)

Cosmos 1459 Rocket - Pass Details

Date: 23 October 2021
Orbit: 936 x 1000 km, 83.0° (Epoch: 01 December)

Event Time Altitude Azimuth Distance (km) Brightness Sun altitude
Rises 21:24:24 0° 238° (WSW) 3,658 7.2 -44.0°
Enters shadow 21:26:42 - 249° (WSW) 2,996 6.8 -44.3°
Exits shadow 21:29:27 14° 271° (W) 2,400 6.4 -44.7°
Maximum altitude 21:31:51 17° 298° (WNW) 2,200 6.3 -45.0°
Drops below altitude 10° 21:35:49 10° 338° (NNW) 2,687 6.8 -45.5°
Sets 21:39:17 0° 358° (N) 3,627 7.4 -45.9°
